Location: Observatory
(52.1446°N, 0.4624°W)
Time: 06:23:51
(UTC+00:00)

ISS - Pass Details

Date: 11 December 2017
Orbit: 403 x 407 km, 51.6° (Epoch: 12 December)

Event Time Altitude Azimuth Distance (km) Brightness Sun altitude
Rises 17:07:40 0° 278° (W) 2,332 1.1 -11.1°
Reaches altitude 10° 17:09:45 10° 276° (W) 1,470 0.0 -11.4°
Maximum altitude 17:13:02 69° 193° (SSW) 438 -3.6 -11.9°
Enters shadow 17:15:47 14° 110° (ESE) 1,252 -1.8 -12.3°
